Location: Vancouver
(49.2500°N, 123.1330°W)
Time: 21:41:58
(UTC-08:00)

Vanguard 2 Rocket - Visible Passes

Search period start: 11 February 2016 00:00
Search period end: 21 February 2016 00:00
Orbit: 554 x 3329 km, 32.9° (Epoch: 11 February)

Date Brightness Start Highest point End Pass type
(mag) Time Alt. Az. Time Alt. Az. Time Alt. Az.
11 Feb 9.1 05:28:41 10° SSW 05:33:57 24° SSE 05:41:56 10° ESE visible
12 Feb 8.9 04:33:01 15° S 04:35:13 17° SSE 04:40:32 10° ESE visible
12 Feb 9.2 06:41:08 10° SW 06:47:32 28° S 06:57:24 10° ESE visible
13 Feb 9.4 03:37:19 11° SE 03:37:19 11° SE 03:38:13 10° SE visible
13 Feb 9.0 05:43:10 10° SW 05:48:25 25° SSE 05:56:19 10° ESE visible
14 Feb 8.7 04:47:27 17° S 04:49:37 19° SSE 04:55:18 10° ESE visible
15 Feb 9.1 03:51:45 13° SSE 03:51:45 13° SSE 03:54:08 10° SE visible
15 Feb 8.9 05:57:58 10° SW 06:03:02 23° S 06:10:23 10° SE visible
16 Feb 8.6 05:01:52 16° SSW 05:04:09 20° S 05:09:43 10° SE visible
17 Feb 8.9 04:06:09 15° SSE 04:06:09 15° SSE 04:09:04 10° SE visible
17 Feb 8.9 06:13:08 10° SW 06:17:41 20° S 06:24:02 10° SE visible
18 Feb 8.6 05:16:16 14° SSW 05:18:47 18° S 05:23:45 10° SE visible
19 Feb 8.8 04:20:33 15° SSE 04:20:33 15° SSE 04:23:30 10° SE visible
19 Feb 9.1 06:28:50 10° SW 06:32:25 15° S 06:36:59 10° SSE visible
20 Feb 8.7 05:30:41 11° SSW 05:33:29 14° S 05:37:12 10° SSE visible
